Current weather by "City, St" or "zip code"  
 
Advertise Here

Current Conditions: Des Moines International Airport, IA

A Few Clouds


25.0 F

Last Updated on Jan 18 2021, 2:54 am CST
Humidity: 81%
Wind Speed: W 5.8 mph
Barometer 29.85 in
Dewpoint: 19.9 F
Visibility: 10.00 mi
Precip: --
Heat Index: NA
Wind Chill: 18 F
Current conditions at:

Des Moines International Airport, IA (KDSM)

Lat: 41.53399 Lon: 93.65307

Local Radar Image active severe weather and emergency alerts image image weather storm and storm spotter reports image weather observation monitoring service image
Local
Radar
Active
Alerts
Storm Reports Obs
Monitoring

Sign-up For Email & Text Message Weather Alert Notification Services


Advertise Here

Observation History for Des Moines International Airport, IA


Time Wind
(mph)
Vis
(mi)
Weather Precip (in) Temperature (F) Relative
Humidity
Wind
Chill
(F)
Heat
Index
(F)
Pressure
Air Dwpt altimeter
(in)
sea level
(mb)
Rmks
2:54 am CST W 5.8 10.00 A Few Clouds -- 25.0 19.9 81% 18 NA 29.85 1012.0
1:54 am CST W 5.8 10.00 Partly Cloudy -- 26.0 21.0 81% 19 NA 29.84 1011.6
12:54 am CST W 8.1 10.00 Mostly Cloudy -- 29.0 23.0 78% 21 NA 29.83 1011.2
11:54 pm CST W 5.8 10.00 Overcast -- 29.0 24.1 82% 23 NA 29.83 1011.2
10:54 pm CST N 0.0 10.00 Overcast -- 29.0 24.1 82% NA NA 29.84 1011.4
9:54 pm CST W 3.5 10.00 Overcast -- 29.0 24.1 82% NA NA 29.84 1011.6
8:54 pm CST W 5.8 10.00 Overcast -- 30.0 25.0 82% 24 NA 29.85 1011.8
7:54 pm CST W 4.6 10.00 Overcast -- 29.0 24.1 82% 24 NA 29.84 1011.8
6:54 pm CST W 6.9 10.00 Overcast -- 29.0 23.0 78% 22 NA 29.85 1011.9
5:54 pm CST NW 9.2 10.00 Overcast -- 29.0 23.0 78% 20 NA 29.85 1012.1
4:54 pm CST NW 8.1 10.00 Overcast -- 29.0 23.0 78% 21 NA 29.85 1012.1
3:54 pm CST NW 15.0 G 24.2 10.00 Overcast -- 29.0 23.0 78% 18 NA 29.84 1011.7
2:54 pm CST NW 13.8 G 20.7 10.00 Overcast -- 30.0 23.0 75% 19 NA 29.82 1011.0
1:54 pm CST NW 16.1 G 24.2 10.00 Overcast -- 30.0 23.0 75% 19 NA 29.81 1010.5
12:54 pm CST NW 18.4 10.00 Mostly Cloudy -- 30.0 23.0 75% 18 NA 29.82 1010.7
11:54 am CST NW 11.5 10.00 Overcast Trace 29.0 23.0 78% 19 NA 29.83 1011.2
10:54 am CST NW 9.2 2.00 Light Snow Fog/Mist Trace 28.0 24.1 85% 19 NA 29.84 1011.6
9:54 am CST NW 6.9 1.25 Light Snow Fog/Mist -- 27.0 24.1 89% 20 NA 29.84 1011.5
8:54 am CST W 5.8 1.00 Light Snow Fog/Mist 00.01 26.0 24.1 92% 19 NA 29.83 1011.2
7:54 am CST NW 8.1 1.50 Light Snow Fog/Mist 00.01 25.0 21.9 88% 16 NA 29.82 1011.0
6:54 am CST W 10.4 10.00 Overcast -- 25.0 19.9 81% 15 NA 29.82 1010.8
5:54 am CST W 8.1 10.00 Mostly Cloudy -- 25.0 19.9 81% 16 NA 29.81 1010.5
4:54 am CST W 8.1 10.00 Overcast -- 24.0 19.9 84% 15 NA 29.80 1010.3
3:54 am CST W 5.8 10.00 Mostly Cloudy -- 25.0 21.0 85% 18 NA 29.80 1010.4

Regional Weather Observation


Ankeny Regional Airport, IA (KIKV)

A Few Clouds
25.0 F

Des Moines International Airport, IA (KDSM)

A Few Clouds
25.0 F

Perry Municipal Airport, IA (KPRO)

Fair
23.0 F

Boone Municipal, IA (KBNW)

Overcast
28.0 F

Newton Municipal Airport - Earl Johnson Field, IA (KTNU)

Mostly Cloudy
28.0 F

Osceola Municipal Airport, IA (KI75)

Fair
24.0 F